This demonstration page uses our WeatherBlox Daily Observations layout. Learn more.

Left ArrowRight Arrow

Hourly Observations for July 23, 2017

Temp ( °F °C ) Dew Point ( °F °C ) Humidity (%) Winds ( mph kmh ) Pressure ( in mb ) Visibility ( mi km ) Precip ( " mm )
12:15 am 00:15 Clear 68 20 66 18.7 92 92 Calm 29.97 1015 7 11 0.00 0.00
12:35 am 00:35 Clear 67 19.2 64 18 93 93 N 3 6 29.97 1015 7 11 0.00 0.00
12:55 am 00:55 Clear with Mist and Fog 66 18.8 64 17.7 93 93 NW 3 6 29.97 1015 5 8 0.00 0.00
1:15 am 01:15 Clear 65 18.5 63 17.3 93 93 Calm 29.97 1015 7 11 0.00 0.00
1:35 am 01:35 Clear 65 18.4 63 17.2 93 93 Calm 29.97 1015 7 11 0.00 0.00
1:55 am 01:55 Clear 65 18.2 63 17 93 93 WNW 5 7 29.97 1015 7 11 0.00 0.00
2:15 am 02:15 Clear with Mist and Fog 65 18.2 63 17.1 93 93 WNW 5 7 29.97 1015 5 8 0.00 0.00
2:35 am 02:35 Clear with Mist and Fog 64 18 63 17 94 94 WNW 5 7 29.97 1015 5 8 0.00 0.00
2:55 am 02:55 Clear with Mist and Fog 64 18 63 17 94 94 WNW 5 7 29.97 1015 4 6 0.00 0.00
3:15 am 03:15 Clear with Mist and Fog 64 18 63 17 94 94 W 5 7 29.97 1015 5 8 0.00 0.00
3:35 am 03:35 Clear with Mist and Fog 64 17.8 62 16.8 94 94 WNW 5 7 29.97 1015 4 6 0.00 0.00
3:55 am 03:55 Clear with Mist and Fog 64 17.6 62 16.6 94 94 WNW 6 9 29.97 1015 4 6 0.00 0.00
4:15 am 04:15 Clear with Mist and Fog 64 17.5 62 16.5 94 94 WNW 6 9 29.97 1015 4 6 0.00 0.00
4:35 am 04:35 Clear with Mist and Fog 63 17.3 61 16.3 94 94 NW 5 7 29.97 1015 5 8 0.00 0.00
4:55 am 04:55 Clear with Mist and Fog 63 17 61 16 94 94 WNW 5 7 29.97 1015 5 8 0.00 0.00
5:15 am 05:15 Clear with Mist and Fog 62 16.7 60 15.6 93 93 W 6 9 30.00 1016 5 8 0.00 0.00
5:35 am 05:35 Clear with Mist and Fog 62 16.7 60 15.6 93 93 WNW 6 9 30.00 1016 5 8 0.00 0.00
5:55 am 05:55 Clear with Mist and Fog 62 16.6 60 15.5 93 93 W 5 7 30.00 1016 5 8 0.00 0.00
6:15 am 06:15 Clear 61 16.3 59 15.1 93 93 WNW 5 7 30.00 1016 7 11 0.00 0.00
6:35 am 06:35 Sunny with Mist and Fog 61 16.1 59 15 93 93 Calm 30.00 1016 4 6 0.00 0.00
6:55 am 06:55 Sunny with Mist and Fog 61 16.1 59 15.1 94 94 W 3 6 30.00 1016 4 6 0.00 0.00
7:15 am 07:15 Sunny with Mist and Fog 62 16.5 60 15.3 93 93 WNW 5 7 30.00 1016 5 8 0.00 0.00
7:35 am 07:35 Sunny 63 17.1 60 15.6 91 91 WNW 3 6 29.97 1015 7 11 0.00 0.00
7:55 am 07:55 Sunny with Mist and Fog 64 17.5 61 16 91 91 N 5 7 29.97 1015 5 8 0.00 0.00
8:15 am 08:15 Sunny 64 18 61 16.2 89 89 WNW 5 7 29.97 1015 7 11 0.00 0.00
8:35 am 08:35 Sunny 66 18.9 62 16.9 88 88 W 3 6 29.97 1015 7 11 0.00 0.00
8:55 am 08:55 Sunny 68 19.9 64 17.5 86 86 W 3 6 29.97 1015 7 11 0.00 0.00
9:15 am 09:15 Sunny 69 20.8 64 18 84 84 WSW 3 6 29.94 1014 7 11 0.00 0.00
9:35 am 09:35 Sunny 71 21.8 65 18.1 80 80 W 3 6 29.94 1014 10 16 0.00 0.00
9:55 am 09:55 Sunny 73 22.9 64 18 74 74 Calm 29.94 1014 10 16 0.00 0.00
10:15 am 10:15 Sunny 75 23.7 64 17.8 70 70 Calm 29.91 1013 10 16 0.00 0.00
10:35 am 10:35 Sunny 76 24.7 65 18.4 68 68 Calm 29.91 1013 10 16 0.00 0.00
10:55 am 10:55 Sunny 78 25.7 66 18.8 66 66 Calm 29.91 1013 10 16 0.00 0.00
11:15 am 11:15 Sunny 80 26.6 67 19.5 65 65 Calm 29.91 1013 10 16 0.00 0.00
11:35 am 11:35 Sunny 82 27.5 67 19.3 61 61 Calm 29.88 1012 7 11 0.00 0.00
11:55 am 11:55 Sunny 83 28.2 66 19.1 58 58 Calm 29.88 1012 10 16 0.00 0.00
12:15 pm 12:15 Sunny 84 29.1 67 19.2 55 55 Calm 29.88 1012 10 16 0.00 0.00
12:35 pm 12:35 Sunny 85 29.5 65 18.1 50 50 Calm 29.88 1012 10 16 0.00 0.00
12:55 pm 12:55 Sunny 87 30.3 65 18.4 49 49 Calm 29.88 1012 10 16 0.00 0.00
1:15 pm 13:15 Sunny 87 30.7 62 16.9 43 43 Calm 29.88 1012 10 16 0.00 0.00
1:35 pm 13:35 Sunny 88 31.1 61 15.9 40 40 Calm 29.85 1011 10 16 0.00 0.00
1:55 pm 13:55 Sunny 88 30.9 64 18 46 46 E 7 11 29.85 1011 10 16 0.00 0.00
2:15 pm 14:15 Sunny 88 31.1 65 18.2 46 46 E 7 11 29.85 1011 10 16 0.00 0.00
2:35 pm 14:35 Sunny 89 31.4 63 17.3 43 43 E 6 9 29.85 1011 10 16 0.00 0.00
2:55 pm 14:55 Sunny 88 31.3 63 17 42 42 ESE 6 9 29.85 1011 10 16 0.00 0.00
3:15 pm 15:15 Sunny 89 31.5 61 16.2 40 40 E 6 9 29.85 1011 10 16 0.00 0.00
3:35 pm 15:35 Sunny 90 32.1 62 16.4 39 39 Calm 29.85 1011 10 16 0.00 0.00
3:55 pm 15:55 Sunny 88 31.3 62 16.8 42 42 E 6 9 29.85 1011 10 16 0.00 0.00
4:15 pm 16:15 Sunny 89 31.7 64 17.6 43 43 E 6 9 29.85 1011 10 16 0.00 0.00
4:35 pm 16:35 Sunny 88 31.1 64 18 46 46 ESE 7 11 29.85 1011 10 16 0.00 0.00
4:55 pm 16:55 Sunny 88 31.1 64 17.8 45 45 E 8 13 29.83 1010 10 16 0.00 0.00
5:15 pm 17:15 Sunny 88 31.2 67 19.5 50 50 E 9 15 29.83 1010 10 16 0.00 0.00
5:35 pm 17:35 Sunny 87 30.7 66 18.7 49 49 E 8 13 29.83 1010 10 16 0.00 0.00
5:55 pm 17:55 Sunny 87 30.5 66 18.9 50 50 E 9 15 29.85 1011 10 16 0.00 0.00
6:15 pm 18:15 Sunny 86 30.1 65 18.5 50 50 ESE 9 15 29.85 1011 10 16 0.00 0.00
6:35 pm 18:35 Sunny 86 30 66 18.8 51 51 E 12 19 29.85 1011 10 16 0.00 0.00
6:55 pm 18:55 Sunny 85 29.5 65 18.1 50 50 ESE 10 17 29.85 1011 10 16 0.00 0.00
7:15 pm 19:15 Sunny 84 29 65 18.4 53 53 E 7 11 29.85 1011 10 16 0.00 0.00
7:35 pm 19:35 Sunny 83 28.5 66 18.9 56 56 E 9 15 29.85 1011 10 16 0.00 0.00
7:55 pm 19:55 Sunny 82 27.6 65 18.4 57 57 E 8 13 29.85 1011 10 16 0.00 0.00
8:15 pm 20:15 Sunny 81 27 65 18.4 59 59 E 8 13 29.85 1011 10 16 0.00 0.00
8:35 pm 20:35 Sunny 80 26.5 65 18.1 60 60 ESE 8 13 29.88 1012 10 16 0.00 0.00
8:55 pm 20:55 Sunny 79 26 65 18.3 63 63 ESE 7 11 29.88 1012 7 11 0.00 0.00
9:15 pm 21:15 Clear 78 25.4 66 18.8 67 67 ESE 7 11 29.88 1012 10 16 0.00 0.00
9:35 pm 21:35 Clear 77 25.1 65 18.4 66 66 ESE 8 13 29.88 1012 10 16 0.00 0.00
9:55 pm 21:55 Clear 76 24.5 65 18.6 70 70 ESE 8 13 29.88 1012 10 16 0.00 0.00
10:15 pm 22:15 Clear 76 24.5 65 18.1 68 68 SE 7 11 29.91 1013 10 16 0.00 0.00
10:35 pm 22:35 Clear 75 23.8 65 18.5 72 72 SE 8 13 29.91 1013 10 16 0.00 0.00
10:55 pm 22:55 Clear 74 23.5 65 18.6 74 74 SE 9 15 29.94 1014 10 16 0.00 0.00
11:15 pm 23:15 Clear 74 23.5 65 18.5 74 74 SE 10 17 29.94 1014 10 16 0.00 0.00
11:35 pm 23:35 Clear 74 23.2 66 18.7 76 76 SE 9 15 29.94 1014 10 16 0.00 0.00
11:55 pm 23:55 Clear 73 22.6 66 18.8 79 79 SE 7 11 29.94 1014 10 16 0.00 0.00

Powered by AerisWeather